When you browse on this site, cookies collect data to enhance your experience and personalize the content and advertising you see.
Visit our Privacy Policy to learn more. By continuing to use the site, you agree to this use of cookies and data.
  • In Spain
  • List of Countries
  • For 7 days
  • Water Temperature
  • Satellite Maps
  • Weather Map
  • Weather Widgets
  • user-avatar
    Login

    Hourly Weather Megri

    Today, 18 November, Sunday

    Time Temperature Precipitation Wind Pressure Humidity
    00:00 +5°C° 0 mm 1 mps 624 mmHg 63%
    01:00 +5°C° 0 mm 1 mps 624 mmHg 63%
    02:00 +5°C° 0 mm 1 mps 624 mmHg 64%
    03:00 +4°C° 0 mm 1 mps 623 mmHg 60%
    04:00 +4°C° 0 mm 1 mps 623 mmHg 61%
    05:00 +4°C° 0 mm 1 mps 623 mmHg 62%
    06:00 +4°C° 0 mm 1 mps 623 mmHg 63%
    07:00 +5°C° 0 mm 1 mps 623 mmHg 60%
    08:00 +6°C° 0 mm 1 mps 624 mmHg 57%
    09:00 +7°C° 0 mm 1 mps 624 mmHg 53%
    10:00 +8°C° 0 mm 1 mps 624 mmHg 52%
    11:00 +7°C° 0 mm 2 mps 624 mmHg 50%
    12:00 +8°C° 0 mm 2 mps 624 mmHg 48%
    13:00 +8°C° 0 mm 2 mps 624 mmHg 47%
    14:00 +8°C° 0 mm 2 mps 624 mmHg 46%
    15:00 +8°C° 0 mm 2 mps 623 mmHg 45%
    16:00 +7°C° 0 mm 2 mps 623 mmHg 47%
    17:00 +6°C° 0 mm 2 mps 623 mmHg 50%
    18:00 +6°C° 0 mm 1 mps 623 mmHg 52%
    19:00 +6°C° 0 mm 1 mps 623 mmHg 53%
    20:00 +5°C° 0 mm 1 mps 623 mmHg 53%
    21:00 +5°C° 0 mm 1 mps 622 mmHg 54%
    22:00 +4°C° 0 mm 1 mps 622 mmHg 54%
    23:00 +4°C° 0 mm 1 mps 622 mmHg 54%

    Tomorrow, 19 November, Monday

    Time Temperature Precipitation Wind Pressure Humidity
    00:00 +4°C° 0 mm 1 mps 622 mmHg 54%
    01:00 +3°C° 0 mm 1 mps 622 mmHg 55%
    02:00 +3°C° 0 mm 1 mps 622 mmHg 55%
    03:00 +3°C° 0 mm 1 mps 622 mmHg 56%
    04:00 +2°C° 0 mm 1 mps 622 mmHg 56%
    05:00 +2°C° 0 mm 1 mps 622 mmHg 56%
    06:00 +1°C° 0 mm 0 mps 622 mmHg 57%
    07:00 +4°C° 0 mm 1 mps 623 mmHg 51%
    08:00 +5°C° 0 mm 1 mps 623 mmHg 46%
    09:00 +7°C° 0 mm 1 mps 624 mmHg 41%
    10:00 +7°C° 0 mm 1 mps 624 mmHg 39%
    11:00 +8°C° 0 mm 1 mps 625 mmHg 37%
    12:00 +9°C° 0 mm 1 mps 625 mmHg 35%
    13:00 +9°C° 0 mm 1 mps 625 mmHg 35%
    14:00 +10°C° 0 mm 1 mps 625 mmHg 35%
    15:00 +10°C° 0 mm 1 mps 624 mmHg 34%
    16:00 +9°C° 0 mm 1 mps 624 mmHg 39%
    17:00 +7°C° 0 mm 1 mps 624 mmHg 44%
    18:00 +6°C° 0 mm 1 mps 624 mmHg 48%
    19:00 +5°C° 0 mm 1 mps 624 mmHg 50%
    20:00 +5°C° 0 mm 1 mps 623 mmHg 52%
    21:00 +4°C° 0 mm 1 mps 623 mmHg 54%
    22:00 +3°C° 0 mm 0 mps 623 mmHg 54%
    23:00 +3°C° 0 mm 0 mps 623 mmHg 55%

    Day after tomorrow, 20 November, Tuesday

    Time Temperature Precipitation Wind Pressure Humidity
    00:00 +3°C° 0 mm 0 mps 623 mmHg 56%
    01:00 +2°C° 0 mm 0 mps 623 mmHg 55%
    02:00 +2°C° 0 mm 0 mps 623 mmHg 54%
    03:00 +2°C° 0 mm 0 mps 622 mmHg 53%
    04:00 +2°C° 0 mm 0 mps 622 mmHg 53%
    05:00 +3°C° 0 mm 1 mps 622 mmHg 52%
    06:00 +3°C° 0 mm 1 mps 622 mmHg 51%
    07:00 +4°C° 0 mm 1 mps 623 mmHg 46%
    08:00 +6°C° 0 mm 1 mps 624 mmHg 41%
    09:00 +8°C° 0 mm 1 mps 625 mmHg 37%
    10:00 +9°C° 0 mm 1 mps 624 mmHg 35%
    11:00 +9°C° 0 mm 2 mps 624 mmHg 34%
    12:00 +9°C° 0 mm 2 mps 624 mmHg 33%
    13:00 +10°C° 0 mm 2 mps 624 mmHg 33%
    14:00 +10°C° 0 mm 2 mps 624 mmHg 33%
    15:00 +10°C° 0 mm 2 mps 623 mmHg 34%
    16:00 +9°C° 0 mm 2 mps 623 mmHg 37%
    17:00 +7°C° 0 mm 2 mps 623 mmHg 40%
    18:00 +6°C° 0 mm 2 mps 622 mmHg 43%
    19:00 +6°C° 0 mm 2 mps 622 mmHg 44%
    20:00 +5°C° 0 mm 2 mps 622 mmHg 45%
    21:00 +6°C° 0 mm 1 mps 622 mmHg 45%
    22:00 +5°C° 0 mm 2 mps 622 mmHg 47%
    23:00 +4°C° 0 mm 2 mps 622 mmHg 48%

    21 November, Wednesday

    Time Temperature Precipitation Wind Pressure Humidity
    00:00 +4°C° 0 mm 2 mps 621 mmHg 49%
    01:00 +4°C° 0 mm 2 mps 621 mmHg 50%
    02:00 +4°C° 0 mm 2 mps 621 mmHg 51%
    03:00 +3°C° 0 mm 2 mps 621 mmHg 52%
    04:00 +3°C° 0 mm 2 mps 621 mmHg 53%
    05:00 +3°C° 0 mm 2 mps 621 mmHg 55%
    06:00 +3°C° 0 mm 2 mps 620 mmHg 56%
    07:00 +4°C° 0 mm 2 mps 621 mmHg 52%
    08:00 +5°C° 0 mm 2 mps 621 mmHg 47%
    09:00 +7°C° 0 mm 2 mps 622 mmHg 43%
    10:00 +8°C° 0 mm 2 mps 622 mmHg 41%
    11:00 +8°C° 0 mm 3 mps 622 mmHg 39%
    12:00 +9°C° 0 mm 3 mps 622 mmHg 36%
    13:00 +9°C° 0 mm 3 mps 621 mmHg 36%
    14:00 +9°C° 0 mm 2 mps 621 mmHg 36%
    15:00 +9°C° 0 mm 2 mps 621 mmHg 36%
    16:00 +8°C° 0 mm 2 mps 621 mmHg 39%
    17:00 +8°C° 0 mm 1 mps 621 mmHg 42%
    18:00 +7°C° 0 mm 1 mps 620 mmHg 46%
    19:00 +7°C° 0 mm 1 mps 620 mmHg 46%
    20:00 +6°C° 0 mm 1 mps 620 mmHg 47%
    21:00 +6°C° 0 mm 1 mps 620 mmHg 48%
    22:00 +6°C° 0 mm 1 mps 620 mmHg 48%
    23:00 +5°C° 0 mm 1 mps 620 mmHg 49%

    22 November, Thursday

    Time Temperature Precipitation Wind Pressure Humidity
    00:00 +5°C° 0 mm 1 mps 620 mmHg 49%
    01:00 +5°C° 0 mm 1 mps 620 mmHg 49%
    02:00 +5°C° 0 mm 1 mps 619 mmHg 50%
    03:00 +5°C° 0 mm 1 mps 619 mmHg 50%
    04:00 +5°C° 0 mm 1 mps 619 mmHg 52%
    05:00 +4°C° 0 mm 1 mps 619 mmHg 55%
    06:00 +4°C° 0 mm 1 mps 619 mmHg 57%
    07:00 +5°C° 0 mm 1 mps 620 mmHg 56%
    08:00 +5°C° 0 mm 2 mps 620 mmHg 55%
    09:00 +6°C° 0 mm 2 mps 621 mmHg 53%
    10:00 +6°C° 0.2 mm 2 mps 621 mmHg 54%
    11:00 +7°C° 0.2 mm 2 mps 620 mmHg 54%
    12:00 +7°C° 0.2 mm 2 mps 620 mmHg 54%
    13:00 +7°C° 0.3 mm 2 mps 620 mmHg 55%
    14:00 +7°C° 0.3 mm 2 mps 620 mmHg 57%
    15:00 +7°C° 0.3 mm 2 mps 620 mmHg 58%
    16:00 +6°C° 0.1 mm 2 mps 620 mmHg 61%
    17:00 +7°C° 0.1 mm 1 mps 620 mmHg 63%
    18:00 +6°C° 0.1 mm 1 mps 620 mmHg 66%
    19:00 +6°C° 0 mm 1 mps 620 mmHg 67%
    20:00 +6°C° 0 mm 1 mps 620 mmHg 68%
    21:00 +5°C° 0 mm 1 mps 620 mmHg 68%
    22:00 +5°C° 0.2 mm 1 mps 619 mmHg 69%
    23:00 +5°C° 0.2 mm 1 mps 619 mmHg 70%

    23 November, Friday

    Time Temperature Precipitation Wind Pressure Humidity
    00:00 +5°C° 0.2 mm 1 mps 619 mmHg 71%
    01:00 +5°C° 0.3 mm 1 mps 619 mmHg 72%
    02:00 +5°C° 0.3 mm 1 mps 619 mmHg 74%
    03:00 +5°C° 0.3 mm 1 mps 619 mmHg 75%
    04:00 +5°C° 0.2 mm 1 mps 619 mmHg 78%
    05:00 +4°C° 0.2 mm 1 mps 619 mmHg 80%
    06:00 +4°C° 0.2 mm 1 mps 619 mmHg 82%
    07:00 +5°C° 0.1 mm 1 mps 620 mmHg 80%
    08:00 +6°C° 0.1 mm 1 mps 620 mmHg 77%
    09:00 +6°C° 0.1 mm 1 mps 621 mmHg 75%
    10:00 +6°C° 0.1 mm 2 mps 621 mmHg 72%
    11:00 +7°C° 0.1 mm 2 mps 621 mmHg 68%
    12:00 +7°C° 0.1 mm 2 mps 621 mmHg 65%
    13:00 +8°C° 0 mm 2 mps 621 mmHg 64%
    14:00 +9°C° 0 mm 1 mps 621 mmHg 64%
    15:00 +9°C° 0 mm 1 mps 622 mmHg 63%
    16:00 +8°C° 0 mm 1 mps 622 mmHg 66%
    17:00 +7°C° 0 mm 1 mps 622 mmHg 69%
    18:00 +6°C° 0 mm 1 mps 622 mmHg 73%
    19:00 +5°C° 0 mm 2 mps 622 mmHg 75%
    20:00 +4°C° 0 mm 2 mps 623 mmHg 78%
    21:00 +4°C° 0 mm 2 mps 623 mmHg 81%
    22:00 +4°C° 0 mm 2 mps 623 mmHg 82%
    23:00 +3°C° 0 mm 2 mps 623 mmHg 83%
    Show more